Location: Düngen
(52.0952°N, 10.0219°E)
Time: 16:03:50
(UTC+00:00)

Cosmos 1763 Rocket - Pass Details

Date: 11 March 2026
Orbit: 727 x 774 km, 74.0° (Epoch: 14 April)

Event Time Altitude Azimuth Distance (km) Brightness Sun altitude
Rises 18:18:01 0° 337° (NNW) 3,231 7.2 -10.1°
Reaches altitude 10° 18:20:29 10° 344° (NNW) 2,309 6.3 -10.5°
Maximum altitude 18:25:31 45° 56° (ENE) 1,052 3.9 -11.3°
Enters shadow 18:30:01 13° 127° (SE) 2,122 5.3 -12.0°
